XM-3

导读

XM-3是美国XM卫星广播公司的第三颗地球同步数字音频广播卫星,于北京时间2005年3月1日8时由国际海上航天发射平台发射升空,由美国波音航天公司专属制造。它和此前发射的XM-1、XM-2一起,配合地面中继器,向美国本土提供覆盖170多个频道的卫星音频广播服务,涵盖音乐、新闻、体育等多元内容。卫星采用BSS-702平台,具备高效散热设计与氙离子推进系统,保障长期稳定在轨运行。

基本信息
目录编号:
28626
目录名称:
XM-3
国际标识:
2005-008A
轨道中心:
EARTH
卫星名称:
XM-3
卫星全名:
--
卫星状态:
在轨 (已飞行7864 天)
发射日期:
2005-03-01 UTC
国别 :
美国 (US)
星等 :
--
轨道信息
数据来源 国际轨道数据 AOE轨道数据
星历时间 2026-09-10T20:08:38+0800
13小时前
查看轨道信息
2026-09-06T10:00:00+0800
4天前
查看轨道信息
半长轴 42538.249km 42537.991km
偏心率 0.0004301 0.0004337
轨道倾角 0.879° 0.867°
近地点辐角 41.655° 41.340°
升交点赤经 82.829° 82.878°
平近点角 313.454° 178.175°
近地点 36141.816km 36141.405km
远地点 36178.408km 36178.303km
周期 1455.222分钟 1455.208分钟
每日圈数 0.98954 0.989549
详细信息
使用方式:
暂无
2D轨道图
3D轨道图
轨道高度分析图
轨道倾角分析图
轨道综合分析图
查看轨道综合分析图
与全量物体交会距离演化趋势
与全量物体交会风险概率演化趋势